Year,Month,Day,Hour,Minute,Value (Times are PST for temperature in C)
2016,04,17,07,15,8.50
2016,04,17,07,16,8.50
2016,04,17,07,17,8.50
2016,04,17,07,18,8.60
2016,04,17,07,19,8.60
2016,04,17,07,20,8.60
2016,04,17,07,21,8.70
2016,04,17,07,22,8.70
2016,04,17,07,23,8.70
2016,04,17,07,24,8.70
2016,04,17,07,25,8.80
2016,04,17,07,26,8.80
2016,04,17,07,27,8.80
2016,04,17,07,28,8.80
2016,04,17,07,29,8.90
2016,04,17,07,30,8.90
2016,04,17,07,31,8.90
2016,04,17,07,32,9.00
2016,04,17,07,33,9.00
2016,04,17,07,34,9.10
2016,04,17,07,35,9.10
2016,04,17,07,36,9.20
2016,04,17,07,37,9.20
2016,04,17,07,38,9.20
2016,04,17,07,39,9.30
2016,04,17,07,40,9.30
2016,04,17,07,41,9.30
2016,04,17,07,42,9.40
2016,04,17,07,43,9.40
2016,04,17,07,44,9.40
2016,04,17,07,45,9.50
2016,04,17,07,46,9.50
2016,04,17,07,47,9.50
2016,04,17,07,48,9.60
2016,04,17,07,49,9.60
2016,04,17,07,50,9.60
2016,04,17,07,51,9.70
2016,04,17,07,52,9.80
2016,04,17,07,53,9.90
2016,04,17,07,54,9.90
2016,04,17,07,55,10.00
2016,04,17,07,56,10.10
2016,04,17,07,57,10.10
2016,04,17,07,58,10.20
2016,04,17,07,59,10.20
2016,04,17,08,00,10.30
2016,04,17,08,01,10.30
2016,04,17,08,02,10.30
2016,04,17,08,03,10.40
2016,04,17,08,04,10.40
2016,04,17,08,05,10.40
2016,04,17,08,06,10.50
2016,04,17,08,07,10.50
2016,04,17,08,08,10.50
2016,04,17,08,09,10.50
2016,04,17,08,10,10.60
2016,04,17,08,11,10.60
2016,04,17,08,12,10.70
2016,04,17,08,13,10.70
2016,04,17,08,14,10.80
2016,04,17,08,15,10.80
2016,04,17,08,16,10.90
2016,04,17,08,17,10.90
2016,04,17,08,18,11.00
2016,04,17,08,19,11.00
2016,04,17,08,20,11.10
2016,04,17,08,21,11.10
2016,04,17,08,22,11.20
2016,04,17,08,23,11.20
2016,04,17,08,24,11.20
2016,04,17,08,25,11.30
2016,04,17,08,26,11.30
2016,04,17,08,27,11.40
2016,04,17,08,28,11.40
2016,04,17,08,29,11.50
2016,04,17,08,30,11.50
2016,04,17,08,31,11.50
2016,04,17,08,32,11.60
2016,04,17,08,33,11.60
2016,04,17,08,34,11.70
2016,04,17,08,35,11.80
2016,04,17,08,36,11.80
2016,04,17,08,37,11.80
2016,04,17,08,38,11.90
2016,04,17,08,39,11.90
2016,04,17,08,40,11.90
2016,04,17,08,41,11.90
2016,04,17,08,42,11.90
2016,04,17,08,43,11.90
2016,04,17,08,44,11.90
2016,04,17,08,45,11.90
2016,04,17,08,46,12.00
2016,04,17,08,47,12.00
2016,04,17,08,48,12.10
2016,04,17,08,49,12.20
2016,04,17,08,50,12.20
2016,04,17,08,51,12.30
2016,04,17,08,52,12.30
2016,04,17,08,53,12.40
2016,04,17,08,54,12.50
2016,04,17,08,55,12.50
2016,04,17,08,56,12.60
2016,04,17,08,57,12.70
2016,04,17,08,58,12.80
2016,04,17,08,59,12.90
2016,04,17,09,00,12.90
2016,04,17,09,01,13.00
2016,04,17,09,02,13.10
2016,04,17,09,03,13.20
2016,04,17,09,04,13.30
2016,04,17,09,05,13.40
2016,04,17,09,06,13.50
2016,04,17,09,07,13.60
2016,04,17,09,08,13.70
2016,04,17,09,09,13.70
2016,04,17,09,10,13.70
2016,04,17,09,11,13.70
2016,04,17,09,12,13.70
2016,04,17,09,13,13.60
2016,04,17,09,14,13.60
2016,04,17,09,15,13.60
2016,04,17,09,16,13.60
2016,04,17,09,17,13.60
2016,04,17,09,18,13.60
2016,04,17,09,19,13.60
2016,04,17,09,20,13.60
2016,04,17,09,21,13.50
2016,04,17,09,22,13.50
2016,04,17,09,23,13.40
2016,04,17,09,24,13.40
2016,04,17,09,25,13.40
2016,04,17,09,26,13.50
2016,04,17,09,27,13.50
2016,04,17,09,28,13.60
2016,04,17,09,29,13.60
2016,04,17,09,30,13.70
2016,04,17,09,31,13.80
2016,04,17,09,32,13.90
2016,04,17,09,33,14.00
2016,04,17,09,34,14.10
2016,04,17,09,35,14.10
2016,04,17,09,36,14.20
2016,04,17,09,37,14.20
2016,04,17,09,38,14.20
2016,04,17,09,39,14.30
2016,04,17,09,40,14.30
2016,04,17,09,41,14.40
2016,04,17,09,42,14.40
2016,04,17,09,43,14.40
2016,04,17,09,44,14.30
2016,04,17,09,45,14.30
2016,04,17,09,46,14.30
2016,04,17,09,47,14.30
2016,04,17,09,48,14.40
2016,04,17,09,49,14.40
2016,04,17,09,50,14.50
2016,04,17,09,51,14.60
2016,04,17,09,52,14.60
2016,04,17,09,53,14.60
2016,04,17,09,54,14.60
2016,04,17,09,55,14.70
2016,04,17,09,56,14.70
2016,04,17,09,57,14.70
2016,04,17,09,58,14.80
2016,04,17,09,59,14.90
2016,04,17,10,00,14.90
2016,04,17,10,01,15.00
2016,04,17,10,02,15.00
2016,04,17,10,03,15.10
2016,04,17,10,04,15.10
2016,04,17,10,05,15.10
2016,04,17,10,06,15.20
2016,04,17,10,07,15.20
2016,04,17,10,08,15.20
2016,04,17,10,09,15.20
2016,04,17,10,10,15.10
2016,04,17,10,11,15.00
2016,04,17,10,12,14.90
2016,04,17,10,13,14.90
2016,04,17,10,14,14.80
2016,04,17,10,15,14.80
2016,04,17,10,16,14.80
2016,04,17,10,17,14.70
2016,04,17,10,18,14.80
2016,04,17,10,19,14.80
2016,04,17,10,20,14.90
2016,04,17,10,21,15.00
2016,04,17,10,22,15.10
2016,04,17,10,23,15.10
2016,04,17,10,24,15.20
2016,04,17,10,25,15.20
2016,04,17,10,26,15.30
2016,04,17,10,27,15.20
2016,04,17,10,28,15.20
2016,04,17,10,29,15.20
2016,04,17,10,30,15.10
2016,04,17,10,31,15.20
2016,04,17,10,32,15.20
2016,04,17,10,33,15.30
2016,04,17,10,34,15.40
2016,04,17,10,35,15.40
2016,04,17,10,36,15.50
2016,04,17,10,37,15.50
2016,04,17,10,38,15.60
2016,04,17,10,39,15.70
2016,04,17,10,40,15.70
2016,04,17,10,41,15.80
2016,04,17,10,42,15.90
2016,04,17,10,43,15.90
2016,04,17,10,44,16.00
2016,04,17,10,45,16.00
2016,04,17,10,46,16.10
2016,04,17,10,47,16.10
2016,04,17,10,48,16.00
2016,04,17,10,49,15.90
2016,04,17,10,50,15.80
2016,04,17,10,51,15.70
2016,04,17,10,52,15.60
2016,04,17,10,53,15.50
2016,04,17,10,54,15.40
2016,04,17,10,55,15.40
2016,04,17,10,56,15.30
2016,04,17,10,57,15.30
2016,04,17,10,58,15.30
2016,04,17,10,59,15.30
2016,04,17,11,00,15.20
2016,04,17,11,01,15.30
2016,04,17,11,02,15.30
2016,04,17,11,03,15.40
2016,04,17,11,04,15.40
2016,04,17,11,05,15.50
2016,04,17,11,06,15.60
2016,04,17,11,07,15.70
2016,04,17,11,08,15.80
2016,04,17,11,09,15.80
2016,04,17,11,10,15.80
2016,04,17,11,11,15.90
2016,04,17,11,12,15.90
2016,04,17,11,13,16.00
2016,04,17,11,14,16.10
2016,04,17,11,15,16.10
2016,04,17,11,16,16.10
2016,04,17,11,17,16.10
2016,04,17,11,18,16.20
2016,04,17,11,19,16.20
2016,04,17,11,20,16.20
2016,04,17,11,21,16.10
2016,04,17,11,22,16.10
2016,04,17,11,23,16.10
2016,04,17,11,24,16.10
2016,04,17,11,25,16.10
2016,04,17,11,26,16.10
2016,04,17,11,27,16.20
2016,04,17,11,28,16.20
2016,04,17,11,29,16.20
2016,04,17,11,30,16.20
2016,04,17,11,31,16.20
2016,04,17,11,32,16.20
2016,04,17,11,33,16.20
2016,04,17,11,34,16.20
2016,04,17,11,35,16.20
2016,04,17,11,36,16.20
2016,04,17,11,37,16.20
2016,04,17,11,38,16.20
2016,04,17,11,39,16.30
2016,04,17,11,40,16.30
2016,04,17,11,41,16.30
2016,04,17,11,42,16.30
2016,04,17,11,43,16.20
2016,04,17,11,44,16.10
2016,04,17,11,45,16.10
2016,04,17,11,46,16.00
2016,04,17,11,47,16.00
2016,04,17,11,48,16.00
2016,04,17,11,49,16.00
2016,04,17,11,50,16.00
2016,04,17,11,51,15.90
2016,04,17,11,52,15.90
2016,04,17,11,53,15.90
2016,04,17,11,54,15.90
2016,04,17,11,55,15.90
2016,04,17,11,56,15.90
2016,04,17,11,57,15.90
2016,04,17,11,58,15.90
2016,04,17,11,59,15.90
2016,04,17,12,00,15.90
2016,04,17,12,01,15.90
2016,04,17,12,02,15.90
2016,04,17,12,03,15.80
2016,04,17,12,04,15.80
2016,04,17,12,05,15.70
2016,04,17,12,06,15.70
2016,04,17,12,07,15.60
2016,04,17,12,08,15.60
2016,04,17,12,09,15.60
2016,04,17,12,10,15.60
2016,04,17,12,11,15.60
2016,04,17,12,12,15.60
2016,04,17,12,13,15.60
2016,04,17,12,14,15.70
2016,04,17,12,15,15.70
2016,04,17,12,16,15.70
2016,04,17,12,17,15.70
2016,04,17,12,18,15.80
2016,04,17,12,19,15.80
2016,04,17,12,20,15.80
2016,04,17,12,21,15.80
2016,04,17,12,22,15.90
2016,04,17,12,23,15.90
2016,04,17,12,24,16.00
2016,04,17,12,25,16.10
2016,04,17,12,26,16.20
2016,04,17,12,27,16.20
2016,04,17,12,28,16.30
2016,04,17,12,29,16.30
2016,04,17,12,30,16.40
2016,04,17,12,31,16.40
2016,04,17,12,32,16.40
2016,04,17,12,33,16.40
2016,04,17,12,34,16.40
2016,04,17,12,35,16.40
2016,04,17,12,36,16.50
2016,04,17,12,37,16.50
2016,04,17,12,38,16.60
2016,04,17,12,39,16.70
2016,04,17,12,40,16.70
2016,04,17,12,41,16.80
2016,04,17,12,42,16.80
2016,04,17,12,43,16.90
2016,04,17,12,44,16.90
2016,04,17,12,45,16.90
2016,04,17,12,46,16.80
2016,04,17,12,47,16.60
2016,04,17,12,48,16.50
2016,04,17,12,49,16.50
2016,04,17,12,50,16.40
2016,04,17,12,51,16.40
2016,04,17,12,52,16.40
2016,04,17,12,53,16.40
2016,04,17,12,54,16.40
2016,04,17,12,55,16.40
2016,04,17,12,56,16.40
2016,04,17,12,57,16.40
2016,04,17,12,58,16.40
2016,04,17,12,59,16.50
2016,04,17,13,00,16.50
2016,04,17,13,01,16.60
2016,04,17,13,02,16.60
2016,04,17,13,03,16.60
2016,04,17,13,04,16.60
2016,04,17,13,05,16.70
2016,04,17,13,06,16.70
2016,04,17,13,07,16.70
2016,04,17,13,08,16.70
2016,04,17,13,09,16.80
2016,04,17,13,10,16.80
2016,04,17,13,11,16.90
2016,04,17,13,12,16.90
2016,04,17,13,13,16.90
2016,04,17,13,14,17.00
2016,04,17,13,15,16.90
2016,04,17,13,16,16.90
2016,04,17,13,17,16.90
2016,04,17,13,18,16.90
2016,04,17,13,19,16.90
2016,04,17,13,20,16.90
2016,04,17,13,21,17.00
2016,04,17,13,22,17.10
2016,04,17,13,23,17.20
2016,04,17,13,24,17.30
2016,04,17,13,25,17.40
2016,04,17,13,26,17.50
2016,04,17,13,27,17.60
2016,04,17,13,28,17.70
2016,04,17,13,29,17.70
2016,04,17,13,30,17.70
2016,04,17,13,31,17.70
2016,04,17,13,32,17.70
2016,04,17,13,33,17.70
2016,04,17,13,34,17.80
2016,04,17,13,35,17.80
2016,04,17,13,36,17.90
2016,04,17,13,37,17.90
2016,04,17,13,38,18.00
2016,04,17,13,39,18.00
2016,04,17,13,40,18.10
2016,04,17,13,41,18.10
2016,04,17,13,42,18.10
2016,04,17,13,43,18.10
2016,04,17,13,44,18.10
2016,04,17,13,45,18.10
2016,04,17,13,46,18.20
2016,04,17,13,47,18.30
2016,04,17,13,48,18.30
2016,04,17,13,49,18.40
2016,04,17,13,50,18.50
2016,04,17,13,51,18.50
2016,04,17,13,52,18.40
2016,04,17,13,53,18.40
2016,04,17,13,54,18.40
2016,04,17,13,55,18.30
2016,04,17,13,56,18.30
2016,04,17,13,57,18.30
2016,04,17,13,58,18.20
2016,04,17,13,59,18.20
2016,04,17,14,00,18.30
2016,04,17,14,01,18.30
2016,04,17,14,02,18.30
2016,04,17,14,03,18.30
2016,04,17,14,04,18.30
2016,04,17,14,05,18.30
2016,04,17,14,06,18.30
2016,04,17,14,07,18.30
2016,04,17,14,08,18.30
2016,04,17,14,09,18.30
2016,04,17,14,10,18.20
2016,04,17,14,11,18.20
2016,04,17,14,12,18.10
2016,04,17,14,13,18.10
2016,04,17,14,14,18.10
2016,04,17,14,15,18.10
2016,04,17,14,16,18.10
2016,04,17,14,17,18.10
2016,04,17,14,18,18.10
2016,04,17,14,19,18.10
2016,04,17,14,20,18.20
2016,04,17,14,21,18.20
2016,04,17,14,22,18.40
2016,04,17,14,23,18.50
2016,04,17,14,24,18.60
2016,04,17,14,25,18.70
2016,04,17,14,26,18.80
2016,04,17,14,27,18.80
2016,04,17,14,28,18.90
2016,04,17,14,29,18.90
2016,04,17,14,30,19.00
2016,04,17,14,31,19.00
2016,04,17,14,32,19.10
2016,04,17,14,33,19.10
2016,04,17,14,34,19.20
2016,04,17,14,35,19.20
2016,04,17,14,36,19.20
2016,04,17,14,37,19.20
2016,04,17,14,38,19.20
2016,04,17,14,39,19.20
2016,04,17,14,40,19.30
2016,04,17,14,41,19.30
2016,04,17,14,42,19.30
2016,04,17,14,43,19.40
2016,04,17,14,44,19.50
2016,04,17,14,45,19.60
2016,04,17,14,46,19.60
2016,04,17,14,47,19.70
2016,04,17,14,48,19.70
2016,04,17,14,49,19.80
2016,04,17,14,50,19.80
2016,04,17,14,51,19.80
2016,04,17,14,52,19.80
2016,04,17,14,53,19.80
2016,04,17,14,54,19.80
2016,04,17,14,55,19.90
2016,04,17,14,56,19.90
2016,04,17,14,57,19.90
2016,04,17,14,58,20.00
2016,04,17,14,59,20.10
2016,04,17,15,00,20.20
2016,04,17,15,01,20.30
2016,04,17,15,02,20.30
2016,04,17,15,03,20.30
2016,04,17,15,04,20.30
2016,04,17,15,05,20.20
2016,04,17,15,06,20.20
2016,04,17,15,07,20.10
2016,04,17,15,08,19.90
2016,04,17,15,09,19.80
2016,04,17,15,10,19.70
2016,04,17,15,11,19.70
2016,04,17,15,12,19.60
2016,04,17,15,13,19.60
2016,04,17,15,14,19.70
2016,04,17,15,15,19.70
2016,04,17,15,16,19.70
2016,04,17,15,17,19.70
2016,04,17,15,18,19.60
2016,04,17,15,19,19.50
2016,04,17,15,20,19.30
2016,04,17,15,21,19.20
2016,04,17,15,22,19.20
2016,04,17,15,23,19.20
2016,04,17,15,24,19.20
2016,04,17,15,25,19.20
2016,04,17,15,26,19.10
2016,04,17,15,27,19.10
2016,04,17,15,28,19.00
2016,04,17,15,29,18.90
2016,04,17,15,30,18.90
2016,04,17,15,31,18.80
2016,04,17,15,32,18.80
2016,04,17,15,33,18.80
2016,04,17,15,34,18.80
2016,04,17,15,35,18.80
2016,04,17,15,36,18.80
2016,04,17,15,37,18.80
2016,04,17,15,38,18.90
2016,04,17,15,39,18.90
2016,04,17,15,40,18.90
2016,04,17,15,41,18.90
2016,04,17,15,42,19.00
2016,04,17,15,43,19.10
2016,04,17,15,44,19.30
2016,04,17,15,45,19.40
2016,04,17,15,46,19.60
2016,04,17,15,47,19.80
2016,04,17,15,48,19.80
2016,04,17,15,49,19.90
2016,04,17,15,50,20.00
2016,04,17,15,51,20.10
2016,04,17,15,52,20.20
2016,04,17,15,53,20.30
2016,04,17,15,54,20.30
2016,04,17,15,55,20.30
2016,04,17,15,56,20.40
2016,04,17,15,57,20.50
2016,04,17,15,58,20.60
2016,04,17,15,59,20.60
2016,04,17,16,00,20.70
2016,04,17,16,01,20.70
2016,04,17,16,02,20.70
2016,04,17,16,03,20.70
2016,04,17,16,04,20.60
2016,04,17,16,05,20.60
2016,04,17,16,06,20.60
2016,04,17,16,07,20.60
2016,04,17,16,08,20.60
2016,04,17,16,09,20.60
2016,04,17,16,10,20.60
2016,04,17,16,11,20.50
2016,04,17,16,12,20.50
2016,04,17,16,13,20.50
2016,04,17,16,14,20.40
2016,04,17,16,15,20.40
2016,04,17,16,16,20.30
2016,04,17,16,17,20.30
2016,04,17,16,18,20.20
2016,04,17,16,19,20.20
2016,04,17,16,20,20.20
2016,04,17,16,21,20.30
2016,04,17,16,22,20.30
2016,04,17,16,23,20.40
2016,04,17,16,24,20.40
2016,04,17,16,25,20.50
2016,04,17,16,26,20.60
2016,04,17,16,27,20.60
2016,04,17,16,28,20.60
2016,04,17,16,29,20.60
2016,04,17,16,30,20.70
2016,04,17,16,31,20.70
2016,04,17,16,32,20.80
2016,04,17,16,33,20.80
2016,04,17,16,34,20.90
2016,04,17,16,35,20.90
2016,04,17,16,36,20.90
2016,04,17,16,37,20.90
2016,04,17,16,38,20.90
2016,04,17,16,39,20.80
2016,04,17,16,40,20.80
2016,04,17,16,41,20.70
2016,04,17,16,42,20.70
2016,04,17,16,43,20.60
2016,04,17,16,44,20.50
2016,04,17,16,45,20.50
2016,04,17,16,46,20.40
2016,04,17,16,47,20.40
2016,04,17,16,48,20.40
2016,04,17,16,49,20.30
2016,04,17,16,50,20.30
2016,04,17,16,51,20.20
2016,04,17,16,52,20.20
2016,04,17,16,53,20.10
2016,04,17,16,54,20.10
2016,04,17,16,55,20.00
2016,04,17,16,56,20.00
2016,04,17,16,57,19.90
2016,04,17,16,58,19.90
2016,04,17,16,59,19.80
2016,04,17,17,00,19.80
2016,04,17,17,01,19.80
2016,04,17,17,02,19.80
2016,04,17,17,03,19.70
2016,04,17,17,04,19.70
2016,04,17,17,05,19.70
2016,04,17,17,06,19.70
2016,04,17,17,07,19.70
2016,04,17,17,08,19.80
2016,04,17,17,09,19.80
2016,04,17,17,10,19.80
2016,04,17,17,11,19.80
2016,04,17,17,12,19.80
2016,04,17,17,13,19.80
2016,04,17,17,14,19.90
2016,04,17,17,15,19.90
2016,04,17,17,16,19.90
2016,04,17,17,17,20.00
2016,04,17,17,18,20.00
2016,04,17,17,19,20.10
2016,04,17,17,20,20.20
2016,04,17,17,21,20.20
2016,04,17,17,22,20.30
2016,04,17,17,23,20.30
2016,04,17,17,24,20.30
2016,04,17,17,25,20.40
2016,04,17,17,26,20.40
2016,04,17,17,27,20.40
2016,04,17,17,28,20.40
2016,04,17,17,29,20.40
2016,04,17,17,30,20.40
2016,04,17,17,31,20.40
2016,04,17,17,32,20.40
2016,04,17,17,33,20.40
2016,04,17,17,34,20.40
2016,04,17,17,35,20.30
2016,04,17,17,36,20.30
2016,04,17,17,37,20.20
2016,04,17,17,38,20.20
2016,04,17,17,39,20.20
2016,04,17,17,40,20.20
2016,04,17,17,41,20.20
2016,04,17,17,42,20.30
2016,04,17,17,43,20.30
2016,04,17,17,44,20.30
2016,04,17,17,45,20.30
2016,04,17,17,46,20.30
2016,04,17,17,47,20.30
2016,04,17,17,48,20.40
2016,04,17,17,49,20.40
2016,04,17,17,50,20.40
2016,04,17,17,51,20.40
2016,04,17,17,52,20.40
2016,04,17,17,53,20.40
2016,04,17,17,54,20.40
2016,04,17,17,55,20.50
2016,04,17,17,56,20.40
2016,04,17,17,57,20.40
2016,04,17,17,58,20.40
2016,04,17,17,59,20.40
2016,04,17,18,00,20.40
2016,04,17,18,01,20.40
2016,04,17,18,02,20.30
2016,04,17,18,03,20.30
2016,04,17,18,04,20.20
2016,04,17,18,05,20.20
2016,04,17,18,06,20.10
2016,04,17,18,07,20.10
2016,04,17,18,08,20.10
2016,04,17,18,09,20.00
2016,04,17,18,10,20.00
2016,04,17,18,11,19.90
2016,04,17,18,12,19.90
2016,04,17,18,13,19.90
2016,04,17,18,14,19.90
2016,04,17,18,15,19.90
2016,04,17,18,16,20.00
2016,04,17,18,17,20.00
2016,04,17,18,18,20.00
2016,04,17,18,19,20.10
2016,04,17,18,20,20.10
2016,04,17,18,21,20.10
2016,04,17,18,22,20.10
2016,04,17,18,23,20.20
2016,04,17,18,24,20.20
2016,04,17,18,25,20.20
2016,04,17,18,26,20.20
2016,04,17,18,27,20.20
2016,04,17,18,28,20.20
2016,04,17,18,29,20.20
2016,04,17,18,30,20.20
2016,04,17,18,31,20.20
2016,04,17,18,32,20.20
2016,04,17,18,33,20.20
2016,04,17,18,34,20.10
2016,04,17,18,35,20.10
2016,04,17,18,36,20.00
2016,04,17,18,37,20.00
2016,04,17,18,38,20.00
2016,04,17,18,39,19.90
2016,04,17,18,40,19.90
2016,04,17,18,41,19.90
2016,04,17,18,42,19.80
2016,04,17,18,43,19.80
2016,04,17,18,44,19.80
2016,04,17,18,45,19.80
2016,04,17,18,46,19.70
2016,04,17,18,47,19.60
2016,04,17,18,48,19.60
2016,04,17,18,49,19.50
2016,04,17,18,50,19.50
2016,04,17,18,51,19.40
2016,04,17,18,52,19.40
2016,04,17,18,53,19.30
2016,04,17,18,54,19.30
2016,04,17,18,55,19.20
2016,04,17,18,56,19.10
2016,04,17,18,57,19.10
2016,04,17,18,58,19.00
2016,04,17,18,59,19.00
2016,04,17,19,00,18.90
2016,04,17,19,01,18.80
2016,04,17,19,02,18.80
2016,04,17,19,03,18.70
2016,04,17,19,04,18.60
2016,04,17,19,05,18.60
2016,04,17,19,06,18.50
2016,04,17,19,07,18.40
2016,04,17,19,08,18.30
2016,04,17,19,09,18.30
2016,04,17,19,10,18.20
2016,04,17,19,11,18.10
2016,04,17,19,12,18.00
2016,04,17,19,13,18.00
2016,04,17,19,14,17.90
2016,04,17,19,15,17.80
2016,04,17,19,16,17.80
2016,04,17,19,17,17.70
2016,04,17,19,18,17.60
2016,04,17,19,19,17.60
2016,04,17,19,20,17.50
2016,04,17,19,21,17.50
2016,04,17,19,22,17.40
2016,04,17,19,23,17.30
2016,04,17,19,24,17.30
2016,04,17,19,25,17.20
2016,04,17,19,26,17.20
2016,04,17,19,27,17.10
2016,04,17,19,28,17.00
2016,04,17,19,29,17.00
2016,04,17,19,30,16.90
2016,04,17,19,31,16.80
2016,04,17,19,32,16.80
2016,04,17,19,33,16.70
2016,04,17,19,34,16.70
2016,04,17,19,35,16.60
2016,04,17,19,36,16.60
2016,04,17,19,37,16.50
2016,04,17,19,38,16.50
2016,04,17,19,39,16.40
2016,04,17,19,40,16.40
2016,04,17,19,41,16.30
2016,04,17,19,42,16.30
2016,04,17,19,43,16.20
2016,04,17,19,44,16.20
2016,04,17,19,45,16.10
2016,04,17,19,46,16.10
2016,04,17,19,47,16.10
2016,04,17,19,48,16.00
2016,04,17,19,49,15.90
2016,04,17,19,50,15.90
2016,04,17,19,51,15.90
2016,04,17,19,52,15.80
2016,04,17,19,53,15.70
2016,04,17,19,54,15.70
2016,04,17,19,55,15.60
2016,04,17,19,56,15.60
2016,04,17,19,57,15.50
2016,04,17,19,58,15.40
2016,04,17,19,59,15.40
2016,04,17,20,00,15.30
2016,04,17,20,01,15.30
2016,04,17,20,02,15.20
2016,04,17,20,03,15.20
2016,04,17,20,04,15.10
2016,04,17,20,05,15.10
2016,04,17,20,06,15.00
2016,04,17,20,07,15.00
2016,04,17,20,08,14.90
2016,04,17,20,09,14.90
2016,04,17,20,10,14.90
2016,04,17,20,11,14.90
2016,04,17,20,12,14.90
2016,04,17,20,13,14.90
2016,04,17,20,14,14.80
2016,04,17,20,15,14.80
2016,04,17,20,16,14.80
2016,04,17,20,17,14.70
2016,04,17,20,18,14.70
2016,04,17,20,19,14.70
2016,04,17,20,20,14.70
2016,04,17,20,21,14.70
2016,04,17,20,22,14.60
2016,04,17,20,23,14.60
2016,04,17,20,24,14.60
2016,04,17,20,25,14.60
2016,04,17,20,26,14.60
2016,04,17,20,27,14.60
2016,04,17,20,28,14.60
2016,04,17,20,29,14.60
2016,04,17,20,30,14.60
2016,04,17,20,31,14.60
2016,04,17,20,32,14.60
2016,04,17,20,33,14.50
2016,04,17,20,34,14.40
2016,04,17,20,35,14.40
2016,04,17,20,36,14.30
2016,04,17,20,37,14.30
2016,04,17,20,38,14.20
2016,04,17,20,39,14.20
2016,04,17,20,40,14.20
2016,04,17,20,41,14.20
2016,04,17,20,42,14.10
2016,04,17,20,43,14.10
2016,04,17,20,44,14.10
2016,04,17,20,45,14.10
2016,04,17,20,46,14.10
2016,04,17,20,47,14.00
2016,04,17,20,48,14.00
2016,04,17,20,49,14.00
2016,04,17,20,50,14.00
2016,04,17,20,51,14.00
2016,04,17,20,52,13.90
2016,04,17,20,53,13.90
2016,04,17,20,54,13.90
2016,04,17,20,55,13.90
2016,04,17,20,56,13.90
2016,04,17,20,57,13.90
2016,04,17,20,58,13.80
2016,04,17,20,59,13.80
2016,04,17,21,00,13.80
2016,04,17,21,01,13.70
2016,04,17,21,02,13.70
2016,04,17,21,03,13.70
2016,04,17,21,04,13.70
2016,04,17,21,05,13.70
2016,04,17,21,06,13.70
2016,04,17,21,07,13.70
2016,04,17,21,08,13.70
2016,04,17,21,09,13.70
2016,04,17,21,10,13.70
2016,04,17,21,11,13.80
2016,04,17,21,12,13.80
2016,04,17,21,13,13.80
2016,04,17,21,14,13.80
2016,04,17,21,15,13.80
2016,04,17,21,16,13.90
2016,04,17,21,17,13.90
2016,04,17,21,18,13.90
2016,04,17,21,19,13.90
2016,04,17,21,20,13.90
2016,04,17,21,21,13.90
2016,04,17,21,22,13.80
2016,04,17,21,23,13.80
2016,04,17,21,24,13.80
2016,04,17,21,25,13.80
2016,04,17,21,26,13.70
2016,04,17,21,27,13.70
2016,04,17,21,28,13.70
2016,04,17,21,29,13.70
2016,04,17,21,30,13.60
2016,04,17,21,31,13.60
2016,04,17,21,32,13.60
2016,04,17,21,33,13.60
2016,04,17,21,34,13.50
2016,04,17,21,35,13.50
2016,04,17,21,36,13.50
2016,04,17,21,37,13.50
2016,04,17,21,38,13.50
2016,04,17,21,39,13.40
2016,04,17,21,40,13.40
2016,04,17,21,41,13.40
2016,04,17,21,42,13.40
2016,04,17,21,43,13.40
2016,04,17,21,44,13.40
2016,04,17,21,45,13.40
2016,04,17,21,46,13.40
2016,04,17,21,47,13.40
2016,04,17,21,48,13.40
2016,04,17,21,49,13.40
2016,04,17,21,50,13.40
2016,04,17,21,51,13.40
2016,04,17,21,52,13.40
2016,04,17,21,53,13.40
2016,04,17,21,54,13.40
2016,04,17,21,55,13.40
2016,04,17,21,56,13.40
2016,04,17,21,57,13.40
2016,04,17,21,58,13.40
2016,04,17,21,59,13.40
2016,04,17,22,00,13.40
2016,04,17,22,01,13.30
2016,04,17,22,02,13.30
2016,04,17,22,03,13.30
2016,04,17,22,04,13.20
2016,04,17,22,05,13.20
2016,04,17,22,06,13.20
2016,04,17,22,07,13.20
2016,04,17,22,08,13.20
2016,04,17,22,09,13.20
2016,04,17,22,10,13.10
2016,04,17,22,11,13.10
2016,04,17,22,12,13.10
2016,04,17,22,13,13.10
2016,04,17,22,14,13.10
2016,04,17,22,15,13.10
2016,04,17,22,16,13.10
2016,04,17,22,17,13.10
2016,04,17,22,18,13.10
2016,04,17,22,19,13.10
2016,04,17,22,20,13.10
2016,04,17,22,21,13.10
2016,04,17,22,22,13.10
2016,04,17,22,23,13.20
2016,04,17,22,24,13.20
2016,04,17,22,25,13.20
2016,04,17,22,26,13.10
2016,04,17,22,27,13.10
2016,04,17,22,28,13.10
2016,04,17,22,29,13.10
2016,04,17,22,30,13.10
2016,04,17,22,31,13.10
2016,04,17,22,32,13.10
2016,04,17,22,33,13.10
2016,04,17,22,34,13.10
2016,04,17,22,35,13.10
2016,04,17,22,36,13.10
